Time,TemperatureF,DewpointF,PressureIn,WindDirection,WindDirectionDegrees,WindSpeedMPH,WindSpeedGustMPH,Humidity,HourlyPrecipIn,Conditions,Clouds,dailyrainin,SolarRadiationWatts/m^2,SoftwareType,DateUTC
2013-02-07 00:01:00,44.0,42.0,-100.00,West,280,0.0,0.0,92,0.00,,,0.00,0.000000,,2013-02-07 08:01:00,
2013-02-07 00:11:00,44.0,42.0,-100.00,West,280,0.0,0.0,92,0.00,,,0.00,0.000000,,2013-02-07 08:11:00,
2013-02-07 00:21:00,44.0,42.0,-100.00,West,280,0.0,0.0,92,0.00,,,0.00,0.000000,,2013-02-07 08:21:00,
2013-02-07 00:31:00,44.0,42.0,-100.00,West,280,0.0,0.0,92,0.00,,,0.00,0.000000,,2013-02-07 08:31:00,
2013-02-07 00:52:00,44.0,42.0,-100.00,WNW,287,0.0,0.0,94,0.00,,,0.00,1.000000,,2013-02-07 08:52:00,
2013-02-07 01:01:00,44.0,42.0,-100.00,WNW,287,0.0,0.0,94,0.00,,,0.00,1.000000,,2013-02-07 09:01:00,
2013-02-07 01:11:00,44.0,42.0,-100.00,WNW,287,0.0,0.0,94,0.00,,,0.00,1.000000,,2013-02-07 09:11:00,
2013-02-07 01:21:00,44.0,42.0,-100.00,WNW,287,0.0,0.0,94,0.00,,,0.00,1.000000,,2013-02-07 09:21:00,
2013-02-07 01:31:00,44.0,42.0,-100.00,WNW,287,0.0,0.0,94,0.00,,,0.00,1.000000,,2013-02-07 09:31:00,
2013-02-07 01:52:00,45.0,43.0,-100.00,WNW,286,0.0,0.0,92,0.00,,,0.00,1.000000,,2013-02-07 09:52:00,
2013-02-07 02:01:00,45.0,43.0,-100.00,WNW,286,0.0,0.0,92,0.00,,,0.00,1.000000,,2013-02-07 10:01:00,
2013-02-07 02:11:00,45.0,43.0,-100.00,WNW,286,0.0,0.0,92,0.00,,,0.00,1.000000,,2013-02-07 10:11:00,
2013-02-07 02:22:00,45.0,43.0,-100.00,WNW,286,0.0,0.0,92,0.00,,,0.00,1.000000,,2013-02-07 10:22:00,
2013-02-07 02:31:00,45.0,43.0,-100.00,WNW,286,0.0,0.0,92,0.00,,,0.00,1.000000,,2013-02-07 10:31:00,
2013-02-07 02:52:00,44.0,42.0,-100.00,WNW,301,0.0,0.0,94,0.00,,,0.00,1.000000,,2013-02-07 10:52:00,
2013-02-07 03:01:00,44.0,42.0,-100.00,WNW,301,0.0,0.0,94,0.00,,,0.00,1.000000,,2013-02-07 11:01:00,
2013-02-07 03:11:00,44.0,42.0,-100.00,WNW,301,0.0,0.0,94,0.00,,,0.00,1.000000,,2013-02-07 11:11:00,
2013-02-07 03:22:00,44.0,42.0,-100.00,WNW,301,0.0,0.0,94,0.00,,,0.00,1.000000,,2013-02-07 11:22:00,
2013-02-07 03:32:00,44.0,42.0,-100.00,WNW,301,0.0,0.0,94,0.00,,,0.00,1.000000,,2013-02-07 11:32:00,
2013-02-07 03:52:00,44.0,43.0,-100.00,WNW,297,0.0,0.0,95,0.00,,,0.00,1.000000,,2013-02-07 11:52:00,
2013-02-07 04:02:00,44.0,43.0,-100.00,WNW,297,0.0,0.0,95,0.00,,,0.00,1.000000,,2013-02-07 12:02:00,
2013-02-07 04:11:00,44.0,43.0,-100.00,WNW,297,0.0,0.0,95,0.00,,,0.00,1.000000,,2013-02-07 12:11:00,
2013-02-07 04:22:00,44.0,43.0,-100.00,WNW,297,0.0,0.0,95,0.00,,,0.00,1.000000,,2013-02-07 12:22:00,
2013-02-07 04:32:00,44.0,43.0,-100.00,WNW,297,0.0,0.0,95,0.00,,,0.00,1.000000,,2013-02-07 12:32:00,
2013-02-07 04:53:00,44.0,44.0,-100.00,West,273,0.0,0.0,100,0.00,,,0.00,1.000000,,2013-02-07 12:53:00,
2013-02-07 05:02:00,44.0,44.0,-100.00,West,273,0.0,0.0,100,0.00,,,0.00,1.000000,,2013-02-07 13:02:00,
2013-02-07 05:11:00,44.0,44.0,-100.00,West,273,0.0,0.0,100,0.00,,,0.00,1.000000,,2013-02-07 13:11:00,
2013-02-07 05:21:00,44.0,44.0,-100.00,West,273,0.0,0.0,100,0.00,,,0.00,1.000000,,2013-02-07 13:21:00,
2013-02-07 05:31:00,44.0,44.0,-100.00,West,273,0.0,0.0,100,0.00,,,0.00,1.000000,,2013-02-07 13:31:00,
2013-02-07 05:52:00,45.0,45.0,-100.00,West,276,0.0,0.0,100,0.00,,,0.00,1.000000,,2013-02-07 13:52:00,
2013-02-07 06:01:00,45.0,45.0,-100.00,West,276,0.0,0.0,100,0.00,,,0.00,1.000000,,2013-02-07 14:01:00,
2013-02-07 06:11:00,45.0,45.0,-100.00,West,276,0.0,0.0,100,0.00,,,0.00,1.000000,,2013-02-07 14:11:00,
2013-02-07 06:21:00,45.0,45.0,-100.00,West,276,0.0,0.0,100,0.00,,,0.00,1.000000,,2013-02-07 14:21:00,
2013-02-07 06:31:00,45.0,45.0,-100.00,West,276,0.0,0.0,100,0.00,,,0.00,1.000000,,2013-02-07 14:31:00,
2013-02-07 06:52:00,45.0,45.0,-100.00,SW,228,0.0,0.0,100,0.01,,,0.01,1.000000,,2013-02-07 14:52:00,
2013-02-07 07:01:00,45.0,45.0,-100.00,SW,228,0.0,0.0,100,0.01,,,0.01,1.000000,,2013-02-07 15:01:00,
2013-02-07 07:11:00,45.0,45.0,-100.00,SW,228,0.0,0.0,100,0.01,,,0.01,1.000000,,2013-02-07 15:11:00,
2013-02-07 07:21:00,45.0,45.0,-100.00,SW,228,0.0,0.0,100,0.01,,,0.01,1.000000,,2013-02-07 15:21:00,
2013-02-07 07:31:00,45.0,45.0,-100.00,SW,228,0.0,0.0,100,0.01,,,0.01,1.000000,,2013-02-07 15:31:00,
2013-02-07 07:52:00,45.0,45.0,-100.00,West,262,0.0,0.0,100,0.05,,,0.06,3.000000,,2013-02-07 15:52:00,
2013-02-07 08:01:00,45.0,45.0,-100.00,West,262,0.0,0.0,100,0.05,,,0.06,3.000000,,2013-02-07 16:01:00,
2013-02-07 08:11:00,45.0,45.0,-100.00,West,262,0.0,0.0,100,0.05,,,0.06,3.000000,,2013-02-07 16:11:00,
2013-02-07 08:21:00,45.0,45.0,-100.00,West,262,0.0,0.0,100,0.05,,,0.06,3.000000,,2013-02-07 16:21:00,
2013-02-07 08:31:00,45.0,45.0,-100.00,West,262,0.0,0.0,100,0.05,,,0.06,3.000000,,2013-02-07 16:31:00,
2013-02-07 08:52:00,44.0,40.0,-100.00,WNW,282,0.0,0.0,87,0.07,,,0.13,23.000000,,2013-02-07 16:52:00,
2013-02-07 09:01:00,44.0,40.0,-100.00,WNW,282,0.0,0.0,87,0.07,,,0.13,23.000000,,2013-02-07 17:01:00,
2013-02-07 09:11:00,44.0,40.0,-100.00,WNW,282,0.0,0.0,87,0.07,,,0.13,23.000000,,2013-02-07 17:11:00,
2013-02-07 09:21:00,44.0,40.0,-100.00,WNW,282,0.0,0.0,87,0.07,,,0.13,23.000000,,2013-02-07 17:21:00,
2013-02-07 09:31:00,44.0,40.0,-100.00,WNW,282,0.0,0.0,87,0.07,,,0.13,23.000000,,2013-02-07 17:31:00,
2013-02-07 09:52:00,45.0,39.0,-100.00,West,265,0.0,0.0,79,0.00,,,0.13,112.000000,,2013-02-07 17:52:00,
2013-02-07 10:01:00,45.0,39.0,-100.00,West,265,0.0,0.0,79,0.00,,,0.13,112.000000,,2013-02-07 18:01:00,
2013-02-07 10:11:00,45.0,39.0,-100.00,West,265,0.0,0.0,79,0.00,,,0.13,112.000000,,2013-02-07 18:11:00,
2013-02-07 10:22:00,45.0,39.0,-100.00,West,265,0.0,0.0,79,0.00,,,0.13,112.000000,,2013-02-07 18:22:00,
2013-02-07 10:31:00,45.0,39.0,-100.00,West,265,0.0,0.0,79,0.00,,,0.13,112.000000,,2013-02-07 18:31:00,
2013-02-07 10:52:00,47.0,41.0,-100.00,West,271,12.0,-999.0,81,0.00,,,0.13,,,2013-02-07 18:52:00,
2013-02-07 11:01:00,47.0,41.0,-100.00,West,271,12.0,-999.0,81,0.00,,,0.13,,,2013-02-07 19:01:00,
2013-02-07 11:11:00,47.0,41.0,-100.00,West,271,12.0,-999.0,81,0.00,,,0.13,,,2013-02-07 19:11:00,
2013-02-07 11:22:00,47.0,41.0,-100.00,West,271,12.0,-999.0,81,0.00,,,0.13,,,2013-02-07 19:22:00,
2013-02-07 11:31:00,47.0,41.0,-100.00,West,271,12.0,-999.0,81,0.00,,,0.13,,,2013-02-07 19:31:00,
2013-02-07 11:52:00,48.0,39.0,-100.00,West,277,0.0,18.0,70,0.00,,,0.13,412.000000,,2013-02-07 19:52:00,
2013-02-07 12:01:00,48.0,39.0,-100.00,West,277,0.0,18.0,70,0.00,,,0.13,412.000000,,2013-02-07 20:01:00,
2013-02-07 12:11:00,48.0,39.0,-100.00,West,277,0.0,18.0,70,0.00,,,0.13,412.000000,,2013-02-07 20:11:00,
2013-02-07 12:21:00,48.0,39.0,-100.00,West,277,0.0,18.0,70,0.00,,,0.13,412.000000,,2013-02-07 20:21:00,
2013-02-07 12:31:00,48.0,39.0,-100.00,West,277,0.0,18.0,70,0.00,,,0.13,412.000000,,2013-02-07 20:31:00,
2013-02-07 12:52:00,48.0,35.0,-100.00,West,271,0.0,0.0,61,0.00,,,0.13,405.000000,,2013-02-07 20:52:00,
2013-02-07 13:01:00,48.0,35.0,-100.00,West,271,0.0,0.0,61,0.00,,,0.13,405.000000,,2013-02-07 21:01:00,
2013-02-07 13:11:00,48.0,35.0,-100.00,West,271,0.0,0.0,61,0.00,,,0.13,405.000000,,2013-02-07 21:11:00,
2013-02-07 13:21:00,48.0,35.0,-100.00,West,271,0.0,0.0,61,0.00,,,0.13,405.000000,,2013-02-07 21:21:00,
2013-02-07 13:31:00,48.0,35.0,-100.00,West,271,0.0,0.0,61,0.00,,,0.13,405.000000,,2013-02-07 21:31:00,
2013-02-07 13:52:00,49.0,34.0,-100.00,West,269,0.0,0.0,57,0.00,,,0.13,563.000000,,2013-02-07 21:52:00,
2013-02-07 14:02:00,49.0,34.0,-100.00,West,269,0.0,0.0,57,0.00,,,0.13,563.000000,,2013-02-07 22:02:00,
2013-02-07 14:11:00,49.0,34.0,-100.00,West,269,0.0,0.0,57,0.00,,,0.13,563.000000,,2013-02-07 22:11:00,
2013-02-07 14:21:00,49.0,34.0,-100.00,West,269,0.0,0.0,57,0.00,,,0.13,563.000000,,2013-02-07 22:21:00,
2013-02-07 14:31:00,49.0,34.0,-100.00,West,269,0.0,0.0,57,0.00,,,0.13,563.000000,,2013-02-07 22:31:00,
2013-02-07 14:52:00,48.0,31.0,-100.00,West,275,0.0,0.0,52,0.00,,,0.13,585.000000,,2013-02-07 22:52:00,
2013-02-07 15:01:00,48.0,31.0,-100.00,West,275,0.0,0.0,52,0.00,,,0.13,585.000000,,2013-02-07 23:01:00,
2013-02-07 15:11:00,48.0,31.0,-100.00,West,275,0.0,0.0,52,0.00,,,0.13,585.000000,,2013-02-07 23:11:00,
2013-02-07 15:21:00,48.0,31.0,-100.00,West,275,0.0,0.0,52,0.00,,,0.13,585.000000,,2013-02-07 23:21:00,
2013-02-07 15:31:00,48.0,31.0,-100.00,West,275,0.0,0.0,52,0.00,,,0.13,585.000000,,2013-02-07 23:31:00,
2013-02-07 15:52:00,47.0,32.0,-100.00,West,278,0.0,0.0,55,0.00,,,0.13,363.000000,,2013-02-07 23:52:00,
2013-02-07 16:01:00,47.0,32.0,-100.00,West,278,0.0,0.0,55,0.00,,,0.13,363.000000,,2013-02-08 00:01:00,
2013-02-07 16:11:00,47.0,32.0,-100.00,West,278,0.0,0.0,55,0.00,,,0.13,363.000000,,2013-02-08 00:11:00,
2013-02-07 16:21:00,47.0,32.0,-100.00,West,278,0.0,0.0,55,0.00,,,0.13,363.000000,,2013-02-08 00:21:00,
2013-02-07 16:31:00,47.0,32.0,-100.00,West,278,0.0,0.0,55,0.00,,,0.13,363.000000,,2013-02-08 00:31:00,
2013-02-07 17:52:00,44.0,33.0,-100.00,WNW,289,0.0,0.0,65,0.00,,,0.13,28.000000,,2013-02-08 01:52:00,
2013-02-07 18:01:00,44.0,33.0,-100.00,WNW,289,0.0,0.0,65,0.00,,,0.13,28.000000,,2013-02-08 02:01:00,
2013-02-07 18:11:00,44.0,33.0,-100.00,WNW,289,0.0,0.0,65,0.00,,,0.13,28.000000,,2013-02-08 02:11:00,
2013-02-07 18:21:00,44.0,33.0,-100.00,WNW,289,0.0,0.0,65,0.00,,,0.13,28.000000,,2013-02-08 02:21:00,
2013-02-07 18:31:00,44.0,33.0,-100.00,WNW,289,0.0,0.0,65,0.00,,,0.13,28.000000,,2013-02-08 02:31:00,
2013-02-07 18:52:00,43.0,36.0,-100.00,WNW,288,9.0,12.0,77,0.00,,,0.13,2.000000,,2013-02-08 02:52:00,
2013-02-07 19:01:00,43.0,36.0,-100.00,WNW,288,9.0,12.0,77,0.00,,,0.13,2.000000,,2013-02-08 03:01:00,
2013-02-07 19:12:00,43.0,36.0,-100.00,WNW,288,9.0,12.0,77,0.00,,,0.13,2.000000,,2013-02-08 03:12:00,
2013-02-07 19:22:00,43.0,36.0,-100.00,WNW,288,9.0,12.0,77,0.00,,,0.13,2.000000,,2013-02-08 03:22:00,
2013-02-07 19:31:00,43.0,36.0,-100.00,WNW,288,9.0,12.0,77,0.00,,,0.13,2.000000,,2013-02-08 03:31:00,
2013-02-07 19:52:00,41.0,35.0,-100.00,West,281,14.0,32.0,78,0.04,,,0.17,0.000000,,2013-02-08 03:52:00,
2013-02-07 20:01:00,41.0,35.0,-100.00,West,281,14.0,32.0,78,0.04,,,0.17,0.000000,,2013-02-08 04:01:00,
2013-02-07 20:11:00,41.0,35.0,-100.00,West,281,14.0,32.0,78,0.04,,,0.17,0.000000,,2013-02-08 04:11:00,
2013-02-07 20:21:00,41.0,35.0,-100.00,West,281,14.0,32.0,78,0.04,,,0.17,0.000000,,2013-02-08 04:21:00,
2013-02-07 20:31:00,41.0,35.0,-100.00,West,281,14.0,32.0,78,0.04,,,0.17,0.000000,,2013-02-08 04:31:00,
2013-02-07 20:52:00,40.0,35.0,-100.00,West,281,0.0,15.0,83,0.00,,,0.17,0.000000,,2013-02-08 04:52:00,
2013-02-07 21:01:00,40.0,35.0,-100.00,West,281,0.0,15.0,83,0.00,,,0.17,0.000000,,2013-02-08 05:01:00,
2013-02-07 21:11:00,40.0,35.0,-100.00,West,281,0.0,15.0,83,0.00,,,0.17,0.000000,,2013-02-08 05:11:00,
2013-02-07 21:22:00,40.0,35.0,-100.00,West,281,0.0,15.0,83,0.00,,,0.17,0.000000,,2013-02-08 05:22:00,
2013-02-07 21:31:00,40.0,35.0,-100.00,West,281,0.0,15.0,83,0.00,,,0.17,0.000000,,2013-02-08 05:31:00,
2013-02-07 21:52:00,40.0,36.0,-100.00,WNW,284,0.0,0.0,85,0.00,,,0.17,0.000000,,2013-02-08 05:52:00,
2013-02-07 22:01:00,40.0,36.0,-100.00,WNW,284,0.0,0.0,85,0.00,,,0.17,0.000000,,2013-02-08 06:01:00,
2013-02-07 22:11:00,40.0,36.0,-100.00,WNW,284,0.0,0.0,85,0.00,,,0.17,0.000000,,2013-02-08 06:11:00,
2013-02-07 22:21:00,40.0,36.0,-100.00,WNW,284,0.0,0.0,85,0.00,,,0.17,0.000000,,2013-02-08 06:21:00,
2013-02-07 22:31:00,40.0,36.0,-100.00,WNW,284,0.0,0.0,85,0.00,,,0.17,0.000000,,2013-02-08 06:31:00,
2013-02-07 22:52:00,41.0,35.0,-100.00,West,268,0.0,0.0,79,0.00,,,0.17,0.000000,,2013-02-08 06:52:00,
2013-02-07 23:01:00,41.0,35.0,-100.00,West,268,0.0,0.0,79,0.00,,,0.17,0.000000,,2013-02-08 07:01:00,
2013-02-07 23:11:00,41.0,35.0,-100.00,West,268,0.0,0.0,79,0.00,,,0.17,0.000000,,2013-02-08 07:11:00,
2013-02-07 23:21:00,41.0,35.0,-100.00,West,268,0.0,0.0,79,0.00,,,0.17,0.000000,,2013-02-08 07:21:00,
2013-02-07 23:31:00,41.0,35.0,-100.00,West,268,0.0,0.0,79,0.00,,,0.17,0.000000,,2013-02-08 07:31:00,
2013-02-07 23:52:00,41.0,37.0,-100.00,West,268,0.0,0.0,86,0.00,,,0.17,1.000000,,2013-02-08 07:52:00,